CW9414 Weather Reports


time (UTC)temp
C
wind
direction
speed
KPH
gust
KPH
rain 1hr
cm
rain 24hr
cm
rain mn
cm
humidity
%
barometer
mb
20260904071450 27 42 0.0 0.0 0.00 0.00 0.00 89 1009.0
20260904070450 27 42 0.0 0.0 0.00 0.00 0.00 89 1009.0
20260904065449 27 42 0.0 0.0 0.00 0.00 0.00 89 1009.1
20260904064450 27 42 0.0 0.0 0.00 0.00 0.00 89 1009.1
20260904063449 27 42 0.0 0.0 0.00 0.00 0.00 89 1009.1
20260904062450 27 42 0.0 0.0 0.00 0.00 0.00 89 1009.1
20260904061450 27 42 0.0 0.0 0.00 0.00 0.00 89 1009.1
20260904060449 27 42 0.0 0.0 0.00 0.00 0.00 89 1009.1
20260904055450 27 42 0.0 3.2 0.00 0.00 0.00 89 1009.1
20260904054450 27 42 0.0 3.2 0.00 0.00 0.00 89 1009.0
20260904053453 27 41 0.0 0.0 0.00 0.00 0.00 89 1009.0
20260904052450 27 41 0.0 0.0 0.00 0.00 0.00 89 1009.0
20260904051450 27 41 0.0 0.0 0.00 0.00 0.00 89 1009.1
20260904050453 27 41 0.0 1.6 0.00 0.00 1.27 89 1009.1
20260904045449 27 41 0.0 3.2 0.00 0.00 1.27 89 1009.1
20260904044449 27 40 0.0 0.0 0.00 0.00 1.27 89 1009.0
20260904043449 27 40 0.0 0.0 0.00 0.00 1.27 89 1009.0
20260904042449 27 40 0.0 0.0 0.00 0.00 1.27 89 1008.9
20260904041449 27 40 0.0 0.0 0.00 0.00 1.27 89 1009.0
20260904040449 27 40 0.0 3.2 0.00 0.00 1.27 90 1009.0
20260904035449 27 18 0.0 0.0 0.00 0.00 1.27 90 1009.1
20260904034450 27 18 0.0 1.6 0.00 0.00 1.27 90 1009.1
20260904033450 27 18 0.0 1.6 0.00 0.00 1.27 90 1009.1
20260904032453 27 18 0.0 0.0 0.00 0.00 1.27 90 1009.1
20260904031453 27 18 0.0 1.6 0.00 0.00 1.27 90 1009.1
20260904030450 27 18 0.0 1.6 0.00 0.00 1.27 90 1009.1
20260904025450 27 18 0.0 1.6 0.00 0.00 1.27 89 1009.0
20260904024449 26 17 0.0 0.0 0.00 0.00 1.27 89 1008.6
20260904023452 26 18 0.0 0.0 0.00 0.00 1.27 89 1008.6
20260904022452 26 18 0.0 0.0 0.00 0.00 1.27 88 1008.6
20260904021452 26 17 0.0 0.0 0.00 0.00 1.27 88 1008.5
20260904020452 26 18 0.0 0.0 0.00 0.00 1.27 88 1008.5
20260904015449 26 18 0.0 0.0 0.00 0.00 1.27 87 1008.2
20260904014449 26 18 0.0 0.0 0.00 0.00 1.27 87 1008.1
20260904013449 26 18 0.0 0.0 0.00 0.00 1.27 87 1008.1
20260904012449 26 18 0.0 0.0 0.00 0.00 1.27 87 1008.1
20260904011450 27 18 0.0 0.0 0.00 0.00 1.27 87 1008.1
20260904010449 27 18 0.0 0.0 0.00 0.00 1.27 87 1008.1
20260904005449 27 18 0.0 0.0 0.00 0.00 1.27 87 1008.0
20260904004449 27 18 0.0 0.0 0.00 0.00 1.27 88 1008.1
20260904003449 27 18 0.0 0.0 0.00 0.00 1.27 88 1008.1
20260904002449 27 18 0.0 0.0 0.00 0.00 1.27 88 1008.1
20260904001449 27 18 0.0 0.0 0.00 0.00 1.27 88 1008.1
20260904000449 27 18 0.0 0.0 0.00 0.00 1.27 88 1008.1
20260903235452 27 18 0.0 0.0 0.00 0.00 1.27 88 1008.1
20260903234452 27 18 0.0 0.0 0.00 0.00 1.27 88 1008.1
20260903233449 27 18 0.0 0.0 0.00 0.00 1.27 88 1008.1
20260903232452 26 18 0.0 0.0 0.00 0.00 1.27 88 1008.5
20260903231449 26 18 0.0 0.0 0.00 0.00 1.27 88 1008.5
20260903230449 26 18 0.0 0.0 0.00 0.00 1.27 88 1008.5
20260903225452 26 18 0.0 0.0 0.00 0.00 1.27 88 1008.5
20260903224449 26 18 0.0 0.0 0.00 0.00 1.27 88 1008.4
20260903223449 26 18 0.0 0.0 0.00 0.00 1.27 88 1008.4
20260903222449 26 18 0.0 0.0 0.00 0.00 1.27 88 1008.4
20260903221449 26 18 0.0 0.0 0.00 0.00 1.27 88 1008.6
20260903220449 26 18 0.0 1.6 0.00 0.00 1.27 88 1008.6
20260903215452 26 18 0.0 1.6 0.00 0.00 1.27 88 1009.0
20260903214449 26 18 0.0 1.6 0.00 0.00 1.27 87 1009.2
20260903213449 26 17 0.0 0.0 0.00 0.00 1.24 86 1009.2
20260903212449 26 17 0.0 0.0 0.00 0.00 1.24 86 1009.5
20260903211449 26 17 0.0 0.0 0.00 0.00 1.22 86 1009.2
20260903210452 26 17 0.0 0.0 0.00 0.00 1.19 85 1009.2
20260903205449 25 17 0.0 0.0 0.00 0.00 1.14 83 1009.4
20260903204449 26 17 0.0 0.0 0.00 0.00 1.09 82 1009.6
20260903203452 26 17 0.0 0.0 0.00 0.00 1.09 82 1009.6
20260903202452 26 17 0.0 0.0 0.00 0.00 1.09 82 1009.7
20260903201449 26 17 0.0 1.6 0.00 0.00 1.07 82 1009.6
20260903200449 26 17 0.0 3.2 0.00 0.00 1.07 82 1009.6
20260903195449 27 18 0.0 0.0 0.00 0.00 1.07 80 1009.6
20260903194452 27 18 0.0 1.6 0.00 0.00 1.04 79 1009.9
20260903193449 27 18 0.0 0.0 0.00 0.00 0.99 77 1009.9
20260903192452 27 18 0.0 0.0 0.00 0.00 0.94 76 1010.6
20260903191449 27 19 0.0 3.2 0.00 0.00 0.94 74 1009.9
20260903190449 28 19 0.0 1.6 0.00 0.00 0.89 71 1009.9
20260903185452 30 170 0.0 3.2 0.00 0.00 0.43 66 1009.8
20260903184449 31 171 0.0 8.0 0.00 0.00 0.00 62 1009.7
20260903183449 32 139 0.0 1.6 0.00 0.00 0.00 62 1009.7
20260903182449 32 139 0.0 1.6 0.00 0.00 0.00 60 1009.7
20260903181449 32 139 0.0 6.4 0.00 0.00 0.00 59 1009.7
20260903180452 33 142 0.0 0.0 0.00 0.00 0.00 59 1009.7
20260903175449 33 142 1.6 3.2 0.00 0.00 0.00 60 1009.9
20260903174448 33 142 0.0 4.8 0.00 0.00 0.00 60 1009.7
20260903173452 33 142 4.8 8.0 0.00 0.00 0.00 60 1009.7
20260903172448 33 140 1.6 14.5 0.00 0.00 0.00 60 1009.8
20260903171448 33 185 0.0 6.4 0.00 0.00 0.00 61 1010.2
20260903170449 33 187 3.2 8.0 0.00 0.00 0.00 62 1010.2
20260903165448 32 190 3.2 8.0 0.00 0.00 0.00 64 1010.3
20260903164448 32 235 3.2 4.8 0.00 0.00 0.00 68 1010.3
20260903163448 31 235 1.6 4.8 0.00 0.00 0.00 69 1010.3
20260903162448 31 235 1.6 6.4 0.00 0.00 0.00 69 1010.4
20260903161448 30 225 3.2 6.4 0.00 0.00 0.00 72 1010.3
20260903160449 30 227 1.6 4.8 0.00 0.00 0.00 74 1010.3
20260903155448 30 229 1.6 4.8 0.00 0.00 0.00 75 1010.2
20260903154449 30 230 3.2 8.0 0.00 0.00 0.00 75 1010.3
20260903153448 30 172 0.0 8.0 0.00 0.00 0.00 76 1010.3
20260903152449 30 184 1.6 6.4 0.00 0.00 0.00 77 1010.4
20260903151448 30 184 0.0 8.0 0.00 0.00 0.00 78 1010.6
20260903150449 29 156 0.0 6.4 0.00 0.00 0.00 79 1010.6
20260903145449 29 156 0.0 1.6 0.00 0.00 0.00 80 1010.7
20260903144448 28 156 0.0 3.2 0.00 0.00 0.00 81 1010.6
20260903143449 28 156 0.0 4.8 0.00 0.00 0.00 82 1010.6
20260903142451 28 156 0.0 3.2 0.00 0.00 0.00 82 1010.5
20260903141448 28 156 1.6 6.4 0.00 0.00 0.00 83 1010.3
20260903140449 28 164 0.0 4.8 0.00 0.00 0.00 84 1010.3
20260903135449 27 164 0.0 3.2 0.00 0.00 0.00 84 1010.3
20260903134449 27 173 0.0 0.0 0.00 0.00 0.00 84 1010.3
20260903133448 27 173 0.0 0.0 0.00 0.00 0.00 84 1010.3
20260903132452 27 173 0.0 0.0 0.00 0.00 0.00 84 1010.2
20260903131451 27 173 0.0 0.0 0.00 0.00 0.00 84 1010.2
20260903130449 27 173 0.0 0.0 0.00 0.00 0.00 84 1010.2
20260903125448 27 173 0.0 0.0 0.00 0.00 0.00 84 1009.8
20260903124448 27 173 0.0 0.0 0.00 0.00 0.00 84 1009.6
20260903123448 27 173 0.0 0.0 0.00 0.00 0.00 83 1009.6
20260903122449 27 173 0.0 1.6 0.00 0.00 0.00 82 1009.5
20260903121448 27 173 0.0 3.2 0.00 0.00 0.00 82 1009.4
20260903120451 27 173 0.0 6.4 0.00 0.00 0.00 82 1009.4
20260903115448 27 173 0.0 3.2 0.00 0.00 0.00 81 1009.6
20260903114451 27 173 0.0 3.2 0.00 0.00 0.00 81 1009.6
20260903113448 27 173 0.0 4.8 0.00 0.00 0.00 80 1009.6
20260903112448 27 175 0.0 6.4 0.00 0.00 0.00 80 1009.5
20260903111448 27 144 3.2 6.4 0.00 0.00 0.00 80 1009.5
20260903110448 27 168 0.0 8.0 0.00 0.00 0.00 81 1009.5
20260903105448 28 154 0.0 4.8 0.00 0.00 0.00 81 1009.3
20260903104448 28 154 0.0 8.0 0.00 0.00 0.00 81 1009.2
20260903103448 28 154 0.0 3.2 0.00 0.00 0.00 81 1009.2
20260903102448 28 154 0.0 3.2 0.00 0.00 0.00 81 1009.1
20260903101448 28 154 0.0 6.4 0.00 0.00 0.00 81 1009.1
20260903100448 28 156 0.0 3.2 0.00 0.00 0.00 81 1009.1
20260903095448 28 156 0.0 4.8 0.00 0.00 0.00 81 1009.1
20260903094448 28 156 0.0 4.8 0.00 0.00 0.00 81 1009.2
20260903093448 28 157 0.0 6.4 0.00 0.00 0.00 81 1009.2
20260903092448 28 154 0.0 4.8 0.00 0.00 0.00 81 1009.2
20260903091448 28 154 0.0 3.2 0.00 0.00 0.00 81 1009.1
20260903090448 28 154 0.0 4.8 0.00 0.00 0.00 80 1009.1
20260903085448 28 154 1.6 4.8 0.00 0.00 0.00 80 1009.2
20260903084448 28 154 0.0 1.6 0.00 0.00 0.00 80 1009.1
20260903083448 28 154 0.0 6.4 0.00 0.00 0.00 80 1009.1
20260903082448 28 154 0.0 6.4 0.00 0.00 0.00 80 1009.1
20260903081448 28 154 0.0 6.4 0.00 0.00 0.00 80 1008.9
20260903080449 28 153 0.0 4.8 0.00 0.00 0.00 80 1008.9
20260903075448 28 152 0.0 8.0 0.00 0.00 0.00 79 1009.1
20260903074451 28 150 3.2 4.8 0.00 0.00 0.00 79 1009.1
20260903073451 28 149 0.0 8.0 0.00 0.00 0.00 79 1009.1
20260903072448 28 149 0.0 6.4 0.00 0.00 0.00 79 1009.1